Overview Statistics Trail Chart Weather Telemetry Raw packets
 

This is the latest recevied weather packets stored in our database for station/object IZ2PAG-10. If no packets are shown the sender has not sent any weather packets the latest 10 day(s).

<< 21 22 23 24 25 26 >>
Time Temp. Humidity Pressure Rain* Wind** Luminosity Snow
1787769478 26.67° C 39% 1018.7 hPa - - - -
1787767770 26.67° C 35% 1018.5 hPa - - - -
1787767678 26.67° C 35% 1018.5 hPa - - - -
1787765878 26.67° C 34% 1018.1 hPa - - - -
1787764129 26.67° C 36% 1018.1 hPa - - - -
1787764079 26.67° C 36% 1018.1 hPa - - - -
1787762328 26.67° C 35% 1018.1 hPa - - - -
1787762277 26.67° C 35% 1018.1 hPa - - - -
1787760525 26.67° C 34% 1017.8 hPa - - - -
1787760476 26.67° C 34% 1017.8 hPa - - - -
1787758725 26.67° C 36% 1017.6 hPa - - - -
1787758676 26.67° C 36% 1017.6 hPa - - - -
1787756876 26.67° C 36% 1017.8 hPa - - - -
1787755076 26.67° C 34% 1018.1 hPa - - - -
1787753276 26.67° C 35% 1018.1 hPa - - - -
1787751517 26.67° C 35% 1018.1 hPa - - - -
1787751476 26.67° C 35% 1018.1 hPa - - - -
1787749766 26.67° C 34% 1018 hPa - - - -
1787749675 26.67° C 34% 1018 hPa - - - -
1787748090 26.67° C 35% 1018.3 hPa - - - -
1787747875 26.67° C 35% 1018.3 hPa - - - -
1787746234 26.67° C 34% 1018.7 hPa - - - -
1787746074 26.67° C 34% 1018.7 hPa - - - -
1787744273 26.67° C 35% 1018.7 hPa - - - -
1787742570 26.67° C 37% 1018.8 hPa - - - -

* Rain since midnight (hover to see other rain measurements)
** Current wind speed in m/s (hover to see current wind gust speed)